^^
Saratoga-Weather Station Historical Data
Daily Summary for March 28, 2020 Units:  English    Metric   Both
Daily Weekly Monthly Yearly Custom
  High: Low: Average:
Temperature: 46 °F 35.2 °F 40.6 °F
Dew Point: 43.7 °F 33.1 °F 38.1 °F
Humidity: 94% 82% 91%
Wind Speed: 29.1mph 0mph 0.4mph
Wind Gust: 29mph - -
Wind- - West
Pressure: 29.7 in 29.4 in -
Precipitation: 0.33 in    
Historical Graphs
 
 
Tabular Data for March 28, 2020
Time Temperature Dew Point Pressure Wind Wind Speed Wind Gust Humidity Rainfall Rate (Hourly) solar
00:04 45.7 °F 43.7 °F 29.5 in WNW 0.9 mph 5 mph 93% 0.01 in 0 W/m2
00:09 45.7 °F 43.7 °F 29.5 in Calm   3 mph 93% 0.01 in 0 W/m2
00:14 45.9 °F 43.7 °F 29.5 in SSW 4 mph 8 mph 92% 0.01 in 0 W/m2
00:19 45.9 °F 43.7 °F 29.5 in Calm     92% 0 in 0 W/m2
00:24 45.9 °F 43.7 °F 29.5 in Calm   8 mph 92% 0 in 0 W/m2
00:29 45.9 °F 43.7 °F 29.5 in Calm   2 mph 92% 0 in 0 W/m2
00:34 45.9 °F 43.3 °F 29.5 in Calm   3 mph 91% 0 in 0 W/m2
00:39 46 °F 43.5 °F 29.5 in Calm   2 mph 91% 0 in 0 W/m2
00:44 46 °F 43.5 °F 29.5 in WSW 8.1 mph 12 mph 91% 0 in 0 W/m2
00:49 46 °F 43.5 °F 29.5 in Calm   8 mph 91% 0 in 0 W/m2
00:54 46 °F 43.5 °F 29.5 in Calm   12 mph 91% 0 in 0 W/m2
00:59 45.9 °F 43.3 °F 29.5 in Calm   1 mph 91% 0 in 0 W/m2
01:04 45.9 °F 43.3 °F 29.5 in WNW 0.9 mph 3 mph 91% 0 in 0 W/m2
01:09 45.9 °F 43.3 °F 29.5 in Calm     91% 0 in 0 W/m2
01:14 45.7 °F 43.2 °F 29.5 in Calm     91% 0 in 0 W/m2
01:19 45.5 °F 43 °F 29.5 in SW 2.9 mph 9 mph 91% 0 in 0 W/m2
01:24 45.5 °F 43 °F 29.5 in Calm     91% 0 in 0 W/m2
01:29 45.5 °F 43 °F 29.5 in Calm   5 mph 91% 0 in 0 W/m2
01:34 45.3 °F 42.8 °F 29.5 in Calm   9 mph 91% 0 in 0 W/m2
01:39 45.1 °F 42.6 °F 29.5 in Calm     91% 0 in 0 W/m2
01:44 45.1 °F 42.6 °F 29.5 in Calm   9 mph 91% 0.01 in 0 W/m2
01:49 45.1 °F 43 °F 29.5 in Calm     92% 0.02 in 0 W/m2
01:54 45 °F 42.8 °F 29.5 in Calm   5 mph 92% 0.02 in 0 W/m2
01:59 45 °F 43 °F 29.5 in Calm     93% 0.02 in 0 W/m2
02:04 45 °F 43 °F 29.5 in Calm   5 mph 93% 0.02 in 0 W/m2
02:09 45 °F 43 °F 29.5 in Calm   2 mph 93% 0.02 in 0 W/m2
02:14 45.1 °F 43 °F 29.5 in Calm   9 mph 92% 0.02 in 0 W/m2
02:19 45.1 °F 43 °F 29.5 in Calm     92% 0.02 in 0 W/m2
02:25 45.1 °F 43 °F 29.5 in Calm     92% 0.02 in 0 W/m2
02:30 45.1 °F 43 °F 29.5 in Calm     92% 0.02 in 0 W/m2
02:35 45.1 °F 43 °F 29.5 in Calm   11 mph 92% 0.03 in 0 W/m2
02:40 45.1 °F 42.6 °F 29.5 in Calm   4 mph 91% 0.03 in 0 W/m2
02:45 45 °F 42.4 °F 29.5 in Calm   1 mph 91% 0.02 in 0 W/m2
02:50 45 °F 42.4 °F 29.5 in Calm   8 mph 91% 0.02 in 0 W/m2
02:55 45 °F 42.8 °F 29.5 in NW 2 mph 2 mph 92% 0.01 in 0 W/m2
03:00 44.8 °F 42.6 °F 29.5 in Calm   1 mph 92% 0.01 in 0 W/m2
03:05 44.8 °F 42.6 °F 29.5 in Calm   2 mph 92% 0.01 in 0 W/m2
03:10 44.8 °F 42.6 °F 29.5 in Calm     92% 0.01 in 0 W/m2
03:15 44.8 °F 42.6 °F 29.5 in Calm     92% 0.01 in 0 W/m2
03:20 44.8 °F 42.6 °F 29.5 in Calm     92% 0.01 in 0 W/m2
03:25 44.8 °F 42.6 °F 29.5 in Calm     92% 0.01 in 0 W/m2
03:30 44.8 °F 42.6 °F 29.5 in Calm     92% 0.01 in 0 W/m2
03:35 44.8 °F 42.6 °F 29.5 in Calm     92% 0 in 0 W/m2
03:40 44.8 °F 42.6 °F 29.5 in Calm     92% 0.01 in 0 W/m2
03:45 44.8 °F 42.8 °F 29.5 in Calm   2 mph 93% 0.01 in 0 W/m2
03:50 44.6 °F 42.6 °F 29.5 in Calm     93% 0.01 in 0 W/m2
03:55 44.6 °F 42.6 °F 29.5 in Calm   2 mph 93% 0.01 in 0 W/m2
04:00 44.6 °F 42.6 °F 29.5 in Calm     93% 0.01 in 0 W/m2
04:05 44.4 °F 42.4 °F 29.5 in Calm     93% 0.01 in 0 W/m2
04:10 44.4 °F 42.4 °F 29.5 in Calm     93% 0.01 in 0 W/m2
04:16 44.4 °F 42.4 °F 29.5 in Calm     93% 0.01 in 0 W/m2
04:21 44.4 °F 42.4 °F 29.5 in Calm     93% 0.01 in 0 W/m2
04:26 44.4 °F 42.4 °F 29.5 in Calm     93% 0.01 in 0 W/m2
04:31 44.4 °F 42.4 °F 29.5 in Calm   1 mph 93% 0.01 in 0 W/m2
04:36 44.4 °F 42.4 °F 29.5 in Calm   1 mph 93% 0.01 in 0 W/m2
04:41 44.4 °F 42.3 °F 29.5 in Calm   1 mph 92% 0 in 0 W/m2
04:46 44.4 °F 42.3 °F 29.5 in Calm     92% 0 in 0 W/m2
04:51 44.4 °F 42.3 °F 29.5 in Calm     92% 0 in 0 W/m2
04:56 44.4 °F 42.3 °F 29.5 in Calm     92% 0 in 0 W/m2
05:01 44.4 °F 42.3 °F 29.5 in Calm     92% 0.01 in 0 W/m2
05:06 44.4 °F 42.3 °F 29.5 in Calm     92% 0.02 in 0 W/m2
05:11 44.4 °F 42.3 °F 29.4 in Calm     92% 0.02 in 0 W/m2
05:16 44.4 °F 42.3 °F 29.4 in Calm   1 mph 92% 0.02 in 0 W/m2
05:21 44.2 °F 42.3 °F 29.4 in Calm   1 mph 93% 0.02 in 0 W/m2
05:26 44.2 °F 42.3 °F 29.4 in Calm     93% 0.02 in 0 W/m2
05:31 44.2 °F 42.3 °F 29.4 in Calm     93% 0.02 in 0 W/m2
05:36 44.2 °F 42.3 °F 29.4 in Calm   2 mph 93% 0.02 in 0 W/m2
05:41 44.2 °F 42.3 °F 29.4 in Calm     93% 0.02 in 0 W/m2
05:46 44.2 °F 42.1 °F 29.4 in Calm   3 mph 92% 0.02 in 0 W/m2
05:51 44.4 °F 42.3 °F 29.4 in Calm   1 mph 92% 0.02 in 0 W/m2
05:56 44.4 °F 42.3 °F 29.4 in Calm   3 mph 92% 0.02 in 0 W/m2
06:01 44.4 °F 42.3 °F 29.4 in Calm   6 mph 92% 0.02 in 0 W/m2
06:06 44.2 °F 42.1 °F 29.4 in Calm   1 mph 92% 0.01 in 0 W/m2
06:11 44.2 °F 42.1 °F 29.4 in Calm   6 mph 92% 0.01 in 0 W/m2
06:16 44.2 °F 42.1 °F 29.4 in Calm   2 mph 92% 0.01 in 0 W/m2
06:21 44.2 °F 41.7 °F 29.4 in Calm   7 mph 91% 0.01 in 0 W/m2
06:26 44.2 °F 41.7 °F 29.4 in Calm     91% 0.01 in 0 W/m2
06:31 44.1 °F 41.5 °F 29.4 in Calm   4 mph 91% 0.01 in 0 W/m2
06:36 43.9 °F 41.4 °F 29.4 in Calm     91% 0.01 in 0 W/m2
06:41 43.7 °F 41 °F 29.4 in Calm   4 mph 90% 0.01 in 0 W/m2
06:47 43.5 °F 41 °F 29.4 in Calm   1 mph 91% 0 in 0 W/m2
06:52 43.5 °F 41 °F 29.4 in Calm   1 mph 91% 0 in 0 W/m2
06:57 43.5 °F 41 °F 29.4 in Calm     91% 0 in 0 W/m2
07:02 43.5 °F 41 °F 29.4 in Calm   1 mph 91% 0 in 0 W/m2
07:07 43.5 °F 41 °F 29.4 in Calm     91% 0.01 in 0 W/m2
07:12 43.3 °F 41.2 °F 29.4 in Calm     92% 0.01 in 0 W/m2
07:17 43.3 °F 41.2 °F 29.4 in Calm   2 mph 92% 0.01 in 0 W/m2
07:22 43.3 °F 41.2 °F 29.4 in Calm   11 mph 92% 0.02 in 0 W/m2
07:27 43.3 °F 41.2 °F 29.4 in Calm   1 mph 92% 0.02 in 0 W/m2
07:32 43.5 °F 41.4 °F 29.4 in Calm   7 mph 92% 0.02 in 0 W/m2
07:37 43.5 °F 41.4 °F 29.4 in Calm     92% 0.02 in 0 W/m2
07:42 43.5 °F 41.4 °F 29.4 in Calm   1 mph 92% 0.02 in 0 W/m2
07:47 43.5 °F 41 °F 29.4 in Calm     91% 0.02 in 0 W/m2
07:52 43.3 °F 40.6 °F 29.4 in Calm   12 mph 90% 0.02 in 0 W/m2
07:57 43.3 °F 40.6 °F 29.4 in Calm     90% 0.02 in 0 W/m2
08:02 43.2 °F 40.1 °F 29.4 in Calm   12 mph 89% 0.02 in 0 W/m2
08:07 43 °F 39.9 °F 29.4 in Calm   20 mph 89% 0.01 in 0 W/m2
08:12 43.2 °F 40.1 °F 29.4 in Calm     89% 0.01 in 0 W/m2
08:17 43 °F 39.9 °F 29.4 in Calm   4 mph 89% 0.01 in 0 W/m2
08:22 43 °F 39.9 °F 29.4 in Calm   4 mph 89% 0 in 0 W/m2
08:27 43 °F 39.7 °F 29.4 in Calm   14 mph 88% 0 in 5 W/m2
08:32 43 °F 39.7 °F 29.4 in WNW 2.9 mph 3 mph 88% 0 in 7 W/m2
08:37 42.6 °F 39 °F 29.4 in Calm     87% 0 in 7 W/m2
08:42 42.6 °F 39 °F 29.4 in Calm   16 mph 87% 0 in 9 W/m2
08:47 42.4 °F 38.8 °F 29.4 in Calm     87% 0 in 18 W/m2
08:52 42.4 °F 38.8 °F 29.4 in Calm   7 mph 87% 0 in 33 W/m2
08:57 42.3 °F 38.7 °F 29.4 in Calm     87% 0 in 35 W/m2
09:02 42.3 °F 38.7 °F 29.4 in Calm   2 mph 87% 0 in 28 W/m2
09:07 42.3 °F 38.3 °F 29.4 in Calm     86% 0 in 42 W/m2
09:12 42.4 °F 38.5 °F 29.5 in Calm   13 mph 86% 0 in 47 W/m2
09:17 42.4 °F 38.3 °F 29.4 in Calm   16 mph 85% 0 in 40 W/m2
09:22 42.4 °F 38.3 °F 29.5 in Calm   19 mph 85% 0 in 67 W/m2
09:27 42.4 °F 38.3 °F 29.5 in WNW 0.9 mph 1 mph 85% 0 in 104 W/m2
09:32 42.4 °F 38.3 °F 29.5 in Calm   1 mph 85% 0 in 84 W/m2
09:37 42.4 °F 38.3 °F 29.4 in Calm     85% 0 in 30 W/m2
09:42 42.4 °F 38.3 °F 29.5 in Calm   20 mph 85% 0 in 19 W/m2
09:47 41.9 °F 37.8 °F 29.5 in WSW 0.9 mph 15 mph 85% 0.01 in 7 W/m2
09:52 41.2 °F 37.6 °F 29.5 in WNW 29.1 mph 29 mph 87% 0.02 in 0 W/m2
09:57 39 °F 35.8 °F 29.5 in Calm     88% 0.05 in 14 W/m2
10:02 38.7 °F 36.3 °F 29.5 in West 13 mph 29 mph 91% 0.05 in 40 W/m2
10:07 38.8 °F 36.5 °F 29.5 in Calm     91% 0.05 in 19 W/m2
10:12 39.2 °F 36.9 °F 29.5 in Calm   23 mph 91% 0.05 in 7 W/m2
10:17 39.4 °F 36.7 °F 29.5 in Calm     90% 0.05 in 16 W/m2
10:23 39.4 °F 36.7 °F 29.5 in Calm     90% 0.06 in 9 W/m2
10:28 39.2 °F 36.5 °F 29.5 in Calm   22 mph 90% 0.06 in 0 W/m2
10:33 38.7 °F 36 °F 29.5 in SW 13 mph 13 mph 90% 0.08 in 21 W/m2
10:38 38.3 °F 36 °F 29.5 in Calm     91% 0.08 in 32 W/m2
10:43 38.1 °F 35.8 °F 29.5 in Calm   1 mph 91% 0.07 in 33 W/m2
10:48 38.5 °F 36.1 °F 29.5 in Calm   19 mph 91% 0.07 in 44 W/m2
10:53 38.7 °F 36.3 °F 29.5 in Calm   9 mph 91% 0.05 in 40 W/m2
10:58 38.8 °F 36.1 °F 29.5 in Calm     90% 0.03 in 42 W/m2
11:03 38.8 °F 36.1 °F 29.5 in Calm     90% 0.03 in 95 W/m2
11:08 39 °F 36.3 °F 29.5 in Calm     90% 0.03 in 100 W/m2
11:13 39.2 °F 36.5 °F 29.5 in Calm     90% 0.03 in 134 W/m2
11:18 39.6 °F 37.2 °F 29.5 in Calm     91% 0.03 in 128 W/m2
11:23 39.6 °F 37.2 °F 29.5 in Calm   1 mph 91% 0.02 in 104 W/m2
11:28 39.7 °F 37 °F 29.5 in Calm     90% 0.02 in 91 W/m2
11:33 39.9 °F 37.2 °F 29.5 in Calm     90% 0 in 118 W/m2
11:38 40.3 °F 37.6 °F 29.5 in Calm     90% 0 in 155 W/m2
11:43 40.6 °F 37.9 °F 29.5 in Calm     90% 0 in 120 W/m2
11:48 41 °F 38.3 °F 29.5 in Calm     90% 0 in 125 W/m2
11:53 41.4 °F 38.3 °F 29.5 in Calm   1 mph 89% 0 in 40 W/m2
11:58 41.4 °F 38.1 °F 29.5 in Calm     88% 0 in 113 W/m2
12:03 41.2 °F 37.6 °F 29.5 in Calm   3 mph 87% 0.01 in 65 W/m2
12:08 40.8 °F 37.2 °F 29.5 in Calm   1 mph 87% 0.01 in 151 W/m2
12:13 40.3 °F 36.5 °F 29.5 in Calm   3 mph 86% 0.01 in 98 W/m2
12:18 39.9 °F 36.1 °F 29.5 in Calm   1 mph 86% 0.01 in 76 W/m2
12:23 39.7 °F 36.1 °F 29.5 in Calm     87% 0.01 in 67 W/m2
12:28 39.6 °F 36.3 °F 29.5 in Calm   1 mph 88% 0.01 in 47 W/m2
12:33 39.4 °F 36.1 °F 29.5 in Calm     88% 0.01 in 51 W/m2
12:38 39 °F 36.1 °F 29.5 in Calm   1 mph 89% 0.01 in 72 W/m2
12:43 38.8 °F 36.1 °F 29.5 in Calm     90% 0.01 in 70 W/m2
12:48 38.8 °F 36 °F 29.5 in West 15 mph 20 mph 89% 0.01 in 53 W/m2
12:53 39.2 °F 36.3 °F 29.5 in Calm   4 mph 89% 0.01 in 69 W/m2
12:58 39.4 °F 36.1 °F 29.6 in Calm   20 mph 88% 0.01 in 65 W/m2
13:03 39.6 °F 36.3 °F 29.6 in Calm     88% 0 in 81 W/m2
13:08 39.7 °F 36.1 °F 29.6 in Calm   8 mph 87% 0 in 104 W/m2
13:13 39.7 °F 36.1 °F 29.6 in Calm     87% 0 in 132 W/m2
13:18 39.7 °F 36.1 °F 29.6 in Calm     87% 0 in 79 W/m2
13:23 39.9 °F 36.3 °F 29.6 in Calm   21 mph 87% 0 in 35 W/m2
13:28 39.6 °F 36 °F 29.6 in Calm     87% 0.01 in 72 W/m2
13:33 39.6 °F 36.5 °F 29.6 in Calm   21 mph 89% 0.01 in 58 W/m2
13:38 39.6 °F 36.5 °F 29.6 in Calm   1 mph 89% 0.01 in 39 W/m2
13:43 39.2 °F 36.3 °F 29.6 in Calm   9 mph 89% 0.01 in 35 W/m2
13:48 38.8 °F 36 °F 29.6 in Calm     89% 0.01 in 56 W/m2
13:53 38.8 °F 36.1 °F 29.6 in Calm   11 mph 90% 0.01 in 130 W/m2
13:58 39 °F 36.3 °F 29.6 in Calm   11 mph 90% 0.01 in 121 W/m2
14:03 39.4 °F 36.7 °F 29.6 in Calm   1 mph 90% 0.01 in 125 W/m2
14:08 39.6 °F 37.2 °F 29.6 in Calm   10 mph 91% 0.01 in 62 W/m2
14:13 39.6 °F 36.9 °F 29.6 in Calm   1 mph 90% 0.01 in 44 W/m2
14:18 39.6 °F 36.9 °F 29.6 in Calm   3 mph 90% 0.01 in 130 W/m2
14:23 39.7 °F 37 °F 29.6 in Calm     90% 0.01 in 105 W/m2
14:28 39.9 °F 37.2 °F 29.6 in Calm     90% 0 in 148 W/m2
14:33 40.1 °F 37 °F 29.6 in Calm     89% 0 in 67 W/m2
14:38 40.3 °F 37.2 °F 29.6 in Calm     89% 0 in 79 W/m2
14:43 39.9 °F 36.9 °F 29.6 in Calm     89% 0.01 in 98 W/m2
14:49 39.7 °F 37 °F 29.6 in Calm     90% 0.01 in 72 W/m2
14:54 39.9 °F 37.2 °F 29.6 in Calm     90% 0.02 in 107 W/m2
14:59 40.3 °F 37.6 °F 29.6 in Calm     90% 0.02 in 76 W/m2
15:04 40.6 °F 37 °F 29.6 in Calm   20 mph 87% 0.02 in 176 W/m2
15:09 41.4 °F 36.9 °F 29.6 in Calm     84% 0.02 in 137 W/m2
15:14 41.5 °F 36.7 °F 29.6 in Calm   19 mph 83% 0.02 in 65 W/m2
15:19 40.6 °F 35.6 °F 29.6 in Calm   1 mph 82% 0.02 in 16 W/m2
15:24 37.8 °F 34 °F 29.6 in Calm   23 mph 86% 0.02 in 16 W/m2
15:29 36.3 °F 33.4 °F 29.6 in Calm   8 mph 89% 0.02 in 12 W/m2
15:34 35.4 °F 33.1 °F 29.6 in West 16.1 mph 23 mph 91% 0.02 in 46 W/m2
15:39 35.2 °F 33.1 °F 29.6 in Calm     92% 0.01 in 51 W/m2
15:44 35.2 °F 33.1 °F 29.6 in Calm   20 mph 92% 0.02 in 63 W/m2
15:49 35.4 °F 33.6 °F 29.6 in Calm     93% 0.02 in 42 W/m2
15:54 35.6 °F 33.8 °F 29.6 in Calm   7 mph 93% 0.02 in 11 W/m2
15:59 35.4 °F 33.6 °F 29.6 in Calm     93% 0.02 in 0 W/m2
16:04 35.2 °F 33.4 °F 29.6 in Calm   14 mph 93% 0.02 in 5 W/m2
16:09 35.4 °F 33.6 °F 29.6 in Calm   16 mph 93% 0.03 in 9 W/m2
16:14 35.8 °F 34 °F 29.6 in Calm   12 mph 93% 0.03 in 25 W/m2
16:19 36 °F 33.8 °F 29.6 in Calm   2 mph 92% 0.04 in 46 W/m2
16:24 36.3 °F 34.2 °F 29.6 in Calm     92% 0.04 in 63 W/m2
16:29 36.7 °F 34.3 °F 29.6 in Calm   1 mph 91% 0.05 in 53 W/m2
16:34 36.7 °F 34 °F 29.6 in Calm   3 mph 90% 0.05 in 32 W/m2
16:39 36.9 °F 34.2 °F 29.6 in Calm     90% 0.05 in 18 W/m2
16:44 36.9 °F 34.2 °F 29.6 in Calm     90% 0.04 in 16 W/m2
16:49 36.9 °F 34.2 °F 29.6 in Calm     90% 0.03 in 14 W/m2
16:54 36.9 °F 34.2 °F 29.6 in Calm     90% 0.03 in 12 W/m2
16:59 36.7 °F 34 °F 29.6 in Calm     90% 0.02 in 12 W/m2
17:04 36.7 °F 34 °F 29.6 in Calm     90% 0.02 in 9 W/m2
17:09 36.7 °F 34.3 °F 29.6 in Calm     91% 0.02 in 5 W/m2
17:15 36.7 °F 34.3 °F 29.6 in Calm     91% 0.01 in 5 W/m2
17:20 36.7 °F 34.3 °F 29.6 in Calm     91% 0.01 in 0 W/m2
17:25 36.7 °F 34.3 °F 29.6 in Calm     91% 0.01 in 0 W/m2
17:30 36.7 °F 34.3 °F 29.6 in Calm     91% 0 in 0 W/m2
17:35 36.7 °F 34.3 °F 29.6 in Calm     91% 0 in 0 W/m2
17:40 36.7 °F 34.3 °F 29.6 in Calm     91% 0 in 0 W/m2
17:45 36.7 °F 34.3 °F 29.6 in Calm     91% 0 in 0 W/m2
17:50 36.9 °F 34.5 °F 29.7 in Calm     91% 0 in 0 W/m2
17:55 37 °F 34.3 °F 29.7 in Calm     90% 0.01 in 0 W/m2
18:00 37 °F 34.3 °F 29.7 in Calm     90% 0.01 in 0 W/m2
18:05 37 °F 34.3 °F 29.7 in Calm     90% 0.01 in 0 W/m2
18:10 37 °F 34.3 °F 29.7 in Calm     90% 0.01 in 0 W/m2
18:15 37 °F 34.2 °F 29.7 in Calm     89% 0.01 in 0 W/m2
18:20 37 °F 34.3 °F 29.7 in Calm     90% 0.01 in 0 W/m2
18:25 37 °F 34.3 °F 29.7 in Calm     90% 0.01 in 0 W/m2
18:30 36.9 °F 34.2 °F 29.7 in Calm     90% 0.01 in 0 W/m2
18:35 36.9 °F 34.2 °F 29.7 in Calm     90% 0.01 in 0 W/m2
18:40 36.9 °F 34.2 °F 29.7 in Calm     90% 0.01 in 0 W/m2
18:45 37 °F 34.3 °F 29.7 in Calm     90% 0.01 in 0 W/m2
18:50 37 °F 34.3 °F 29.7 in Calm     90% 0.01 in 0 W/m2
18:55 37 °F 34.2 °F 29.7 in Calm     89% 0 in 0 W/m2
19:00 37.2 °F 34.3 °F 29.7 in Calm     89% 0 in 0 W/m2
19:05 37.2 °F 34.3 °F 29.7 in Calm     89% 0 in 0 W/m2
19:10 37 °F 34.2 °F 29.7 in Calm     89% 0 in 0 W/m2
19:15 37 °F 34.2 °F 29.7 in Calm     89% 0 in 0 W/m2
19:20 37 °F 34.3 °F 29.7 in Calm     90% 0 in 0 W/m2
19:25 37 °F 34.3 °F 29.7 in Calm     90% 0 in 0 W/m2
19:30 36.9 °F 34.2 °F 29.7 in Calm     90% 0 in 0 W/m2
19:35 36.9 °F 34.2 °F 29.7 in Calm     90% 0 in 0 W/m2
19:40 36.9 °F 34.2 °F 29.7 in Calm     90% 0 in 0 W/m2
19:45 36.9 °F 34.2 °F 29.7 in Calm     90% 0 in 0 W/m2
19:50 36.9 °F 34.5 °F 29.7 in Calm     91% 0 in 0 W/m2
19:55 36.9 °F 34.5 °F 29.7 in Calm   3 mph 91% 0 in 0 W/m2
20:00 36.9 °F 34.5 °F 29.7 in Calm     91% 0 in 0 W/m2
20:05 37 °F 34.7 °F 29.7 in Calm     91% 0 in 0 W/m2
20:10 37 °F 34.3 °F 29.7 in Calm     90% 0 in 0 W/m2
20:15 37 °F 34.7 °F 29.7 in Calm     91% 0 in 0 W/m2
20:20 37.2 °F 34.9 °F 29.7 in Calm     91% 0 in 0 W/m2
20:25 37.4 °F 34.7 °F 29.7 in Calm     90% 0 in 0 W/m2
20:30 37.2 °F 34.5 °F 29.6 in Calm     90% 0 in 0 W/m2
20:35 37.2 °F 34.5 °F 29.6 in Calm     90% 0 in 0 W/m2
20:40 37.4 °F 34.7 °F 29.6 in Calm     90% 0 in 0 W/m2
20:45 37.6 °F 34.9 °F 29.6 in Calm     90% 0 in 0 W/m2
20:50 37.6 °F 34.9 °F 29.6 in Calm     90% 0 in 0 W/m2
20:55 37.6 °F 34.9 °F 29.6 in Calm     90% 0 in 0 W/m2
21:00 37.8 °F 35.1 °F 29.6 in Calm     90% 0 in 0 W/m2
21:05 37.8 °F 35.1 °F 29.6 in Calm     90% 0 in 0 W/m2
21:10 37.9 °F 35.2 °F 29.6 in Calm     90% 0 in 0 W/m2
21:15 38.1 °F 35.4 °F 29.6 in Calm     90% 0 in 0 W/m2
21:20 38.5 °F 35.8 °F 29.6 in Calm   1 mph 90% 0.01 in 0 W/m2
21:25 38.7 °F 36 °F 29.6 in Calm     90% 0.01 in 0 W/m2
21:30 38.7 °F 36 °F 29.6 in Calm   1 mph 90% 0.01 in 0 W/m2
21:35 38.7 °F 36 °F 29.6 in Calm     90% 0.01 in 0 W/m2
21:40 38.7 °F 36 °F 29.6 in Calm     90% 0.01 in 0 W/m2
21:45 38.8 °F 36.5 °F 29.6 in Calm     91% 0.01 in 0 W/m2
21:50 38.8 °F 36.5 °F 29.6 in Calm     91% 0.01 in 0 W/m2
21:55 38.8 °F 36.5 °F 29.6 in Calm     91% 0.02 in 0 W/m2
22:00 38.8 °F 36.5 °F 29.6 in Calm     91% 0.02 in 0 W/m2
22:05 38.7 °F 36.3 °F 29.6 in Calm     91% 0.02 in 0 W/m2
22:10 38.5 °F 36.1 °F 29.6 in Calm     91% 0.03 in 0 W/m2
22:16 38.3 °F 36 °F 29.6 in Calm     91% 0.04 in 0 W/m2
22:21 37.8 °F 35.4 °F 29.6 in Calm     91% 0.05 in 0 W/m2
22:26 37.4 °F 35.2 °F 29.6 in Calm     92% 0.06 in 0 W/m2
22:31 37 °F 34.9 °F 29.6 in Calm     92% 0.06 in 0 W/m2
22:36 36.9 °F 34.7 °F 29.6 in Calm   1 mph 92% 0.06 in 0 W/m2
22:41 36.7 °F 34.9 °F 29.6 in Calm   15 mph 93% 0.06 in 0 W/m2
22:46 36.7 °F 34.9 °F 29.6 in Calm   1 mph 93% 0.06 in 0 W/m2
22:51 36.7 °F 34.9 °F 29.6 in Calm   15 mph 93% 0.06 in 0 W/m2
22:56 36.7 °F 34.9 °F 29.6 in Calm     93% 0.06 in 0 W/m2
23:01 36.9 °F 35.1 °F 29.6 in Calm     93% 0.06 in 0 W/m2
23:06 36.9 °F 35.1 °F 29.6 in Calm     93% 0.06 in 0 W/m2
23:11 36.9 °F 35.1 °F 29.6 in Calm     93% 0.05 in 0 W/m2
23:16 36.9 °F 35.2 °F 29.6 in Calm     94% 0.04 in 0 W/m2
23:21 37 °F 35.4 °F 29.6 in Calm     94% 0.03 in 0 W/m2
23:26 37.2 °F 35.6 °F 29.6 in Calm     94% 0.02 in 0 W/m2
23:31 37.2 °F 35.6 °F 29.6 in Calm     94% 0.02 in 0 W/m2
23:37 37.6 °F 36 °F 29.6 in Calm     94% 0.02 in 0 W/m2
23:42 37.6 °F 36 °F 29.6 in Calm     94% 0.02 in 0 W/m2
23:47 37.6 °F 36 °F 29.6 in Calm     94% 0.02 in 0 W/m2
23:52 37.6 °F 36 °F 29.6 in Calm     94% 0.02 in 0 W/m2
23:57 37.6 °F 36 °F 29.6 in Calm     94% 0.01 in 0 W/m2
Juneau County Weather
Compliments of Weather Underground - 4 mb